Weather History for Odiham, United Kingdom

Change the Weather History Date:

Wednesday, December 18, 2013

  Actual Average Record
Temperature  
Mean Temperature 44 °F -  
Max Temperature 50 °F - - ()
Min Temperature 38 °F - - ()
Degree Days  
Heating Degree Days 21    
Moisture  
Dew Point 43 °F    
Average Humidity 90    
Maximum Humidity 100    
Minimum Humidity 74    
Precipitation  
Precipitation 0.08 in - - ()
Sea Level Pressure  
Sea Level Pressure 29.74 in    
Wind  
Wind Speed 14 mph ()    
Max Wind Speed 32 mph    
Max Gust Speed 47 mph    
Visibility 6.0 miles    
Events Rain    
T = Trace of Precipitation, MM = Missing Value Source: Averaged Metar Reports

Daily Weather History Graph

Daily Weather History Graph

Search for Another Location

Airport:

Trip Planner

Search our weather history database for the weather conditions in past years. The results will help you decide how hot, cold, wet, or windy it might be!

Date:

Astronomy

Dec. 18, 2013 Rise Set
Actual Time 8:03 AM GMT 3:56 PM GMT
Civil Twilight 7:24 AM GMT 4:36 PM GMT
Nautical Twilight 6:41 AM GMT 5:19 PM GMT
Astronomical Twilight 6:00 AM GMT 6:00 PM GMT
Moon 5:25 PM GMT (12/18) 8:24 AM GMT (12/18)
Length of Visible Light 9h 12m
Length of Day
7h 52m
Full, 99% of the Moon is Illuminated
Dec 18
Full
Dec 25
Last Quarter
Jan 1
New
Jan 8
First Quarter
Jan 16
Full

Hourly Weather History & Observations

Time (GMT) Temp. Windchill Dew Point Humidity Pressure Visibility Wind Dir Wind Speed Gust Speed Precip Events Conditions
12:00 AM 42 °F - 41 °F 97% 30.01 in 0 mi West 4.6 mph - - Rain Light Drizzle
12:50 AM 41.0 °F 37.1 °F 41.0 °F 100% 29.98 in 0.3 mi SW 5.8 mph - N/A   Light Drizzle
1:00 AM 42 °F - 41 °F 97% 30.00 in 0 mi SW 5.8 mph - - Rain Light Drizzle
1:50 AM 41.0 °F 36.4 °F 41.0 °F 100% 29.98 in 3.1 mi SW 6.9 mph - N/A   Overcast
2:00 AM 41 °F - 41 °F 100% 30.00 in 3 mi SW 6.9 mph - - Rain Light Drizzle
2:50 AM 41.0 °F 33.9 °F 41.0 °F 100% 29.98 in 5.0 mi SW 12.7 mph - N/A   Mostly Cloudy
3:00 AM 41 °F - 40 °F 95% 30.00 in 5 mi SW 12.7 mph - -   Mist
3:15 AM 41.0 °F 34.3 °F 39.2 °F 93% 29.98 in 4.3 mi SW 11.5 mph - N/A   Mostly Cloudy
3:50 AM 39.2 °F 34.2 °F 39.2 °F 100% 29.95 in 6.2 mi SSW 6.9 mph - N/A   Mostly Cloudy
4:00 AM 40 °F - 39 °F 94% 29.99 in 6 mi SSW 6.9 mph - -   Scattered Clouds
4:50 AM 41.0 °F 34.3 °F 39.2 °F 93% 29.95 in 6.2 mi South 11.5 mph - N/A   Mostly Cloudy
5:00 AM 41 °F - 40 °F 92% 29.97 in 4 mi South 11.5 mph - -   Scattered Clouds
5:50 AM 42.8 °F 36.6 °F 41.0 °F 93% 29.95 in - South 11.5 mph - N/A   Clear
6:00 AM 42 °F - 40 °F 91% 29.97 in 12 mi South 11.5 mph - -   Partly Cloudy
6:50 AM 42.8 °F 36.2 °F 41.0 °F 93% 29.92 in 6.2 mi South 12.7 mph - N/A   Scattered Clouds
7:00 AM 43 °F - 40 °F 87% 29.95 in 19 mi South 12.7 mph - -   Partly Cloudy
7:50 AM 44.6 °F 38.1 °F 41.0 °F 87% 29.92 in 6.2 mi South 13.8 mph - N/A   Partly Cloudy
8:00 AM 44 °F - 41 °F 86% 29.94 in 12 mi South 13.8 mph - -   Scattered Clouds
8:15 AM 44.6 °F 38.1 °F 42.8 °F 93% 29.92 in 6.2 mi South 13.8 mph - N/A   Scattered Clouds
8:38 AM 46.4 °F 40.1 °F 42.8 °F 87% 29.89 in 6.2 mi South 15.0 mph 26.5 mph N/A   Scattered Clouds
8:50 AM 46.4 °F 39.5 °F 42.8 °F 87% 29.89 in 6.2 mi South 17.3 mph - N/A   Scattered Clouds
9:00 AM 46 °F - 43 °F 85% 29.91 in 19 mi South 17.3 mph - -   Partly Cloudy
9:50 AM 48.2 °F - 44.6 °F 87% 29.89 in 6.2 mi South 18.4 mph - N/A   Mostly Cloudy
10:00 AM 47 °F - 44 °F 84% 29.90 in 14 mi South 18.4 mph - -   Mostly Cloudy
10:50 AM 48.2 °F - 42.8 °F 82% 29.83 in 6.2 mi South 25.3 mph - N/A   Scattered Clouds
11:00 AM 49 °F - 43 °F 74% 29.86 in 16 mi South 25.3 mph - -   Mostly Cloudy
11:35 AM 48.2 °F - 44.6 °F 87% 29.83 in 6.2 mi South 19.6 mph - N/A   Overcast
11:50 AM 48.2 °F - 44.6 °F 87% 29.80 in 6.2 mi South 17.3 mph - N/A Rain Light Rain
12:00 PM 48 °F - 44 °F 82% 29.83 in 11 mi South 17.3 mph - - Rain Light Rain
12:50 PM 48.2 °F - 44.6 °F 87% 29.74 in 6.2 mi South 20.7 mph - N/A   Mostly Cloudy
1:00 PM 49 °F - 44 °F 79% 29.78 in 11 mi South 20.7 mph - - Rain Light Rain
1:50 PM 48.2 °F - 44.6 °F 87% 29.71 in 6.2 mi South 23.0 mph - N/A   Light Drizzle
2:00 PM 48 °F - 44 °F 83% 29.72 in 4 mi South 23.0 mph - - Rain Light Drizzle
2:03 PM 48.2 °F - 44.6 °F 87% 29.71 in 6.2 mi South 24.2 mph - N/A   Mostly Cloudy
2:15 PM 48.2 °F - 44.6 °F 87% 29.68 in 4.3 mi South 23.0 mph - N/A   Light Drizzle
2:50 PM 48.2 °F - 46.4 °F 93% 29.68 in 6.2 mi South 20.7 mph - N/A   Light Drizzle
3:00 PM 48 °F - 46 °F 88% 29.69 in 9 mi South 20.7 mph - - Rain Light Drizzle
3:28 PM 48.2 °F - 44.6 °F 87% 29.65 in 3.1 mi SSE 23.0 mph - N/A   Light Drizzle
3:50 PM 48.2 °F - 44.6 °F 87% 29.62 in 2.5 mi SSE 21.9 mph 33.4 mph N/A Rain Light Rain
4:00 PM 48 °F - 45 °F 87% 29.64 in 2 mi SSE 21.9 mph - - Rain Light Rain
4:50 PM 48.2 °F - 46.4 °F 93% 29.56 in 3.1 mi South 26.5 mph 43.7 mph N/A Rain Light Rain
5:00 PM 48 °F - 46 °F 88% 29.57 in 3 mi South 26.5 mph - - Rain Light Rain
5:50 PM 48.2 °F - 46.4 °F 93% 29.47 in 6.2 mi SSE 29.9 mph 41.4 mph N/A Rain Rain
6:00 PM 48 °F - 46 °F 90% 29.51 in 6 mi SSE 29.9 mph - - Rain Rain
6:50 PM 48.2 °F - 46.4 °F 93% 29.42 in 1.9 mi SSE 29.9 mph 47.2 mph N/A Rain Heavy Rain
7:00 PM 48 °F - 46 °F 89% 29.43 in 2 mi SSE 29.9 mph - - Rain Heavy Rain
7:50 PM 48.2 °F - 46.4 °F 93% 29.36 in 1.9 mi South 31.1 mph 43.7 mph N/A Rain Heavy Rain
8:00 PM 47 °F - 46 °F 96% 29.37 in 2 mi South 31.1 mph - - Rain Heavy Rain
8:50 PM 48.2 °F - 46.4 °F 93% 29.30 in 1.9 mi South 31.1 mph 47.2 mph N/A Rain Rain
9:00 PM 48 °F - 46 °F 92% 29.33 in 2 mi South 31.1 mph - - Rain Rain
9:50 PM 50.0 °F - 46.4 °F 87% 29.30 in 1.9 mi South 32.2 mph 44.9 mph N/A Rain Rain
10:00 PM 49 °F - 47 °F 90% 29.32 in 2 mi South 32.2 mph - - Rain Rain
10:50 PM 48.2 °F - 44.6 °F 87% 29.33 in 6.2 mi SSW 20.7 mph - N/A   Scattered Clouds
11:00 PM 48 °F - 45 °F 85% 29.34 in 16 mi SSW 20.7 mph - - Rain Light Rain
11:50 PM 48.2 °F - 44.6 °F 87% 29.33 in 6.2 mi SSW 17.3 mph - N/A   Mostly Cloudy